Weather History for Hurlburt Field, FL

Change the Weather History Date:

Tuesday, November 8, 2011

  Actual Average Record
Temperature  
Mean Temperature 66 °F -  
Max Temperature 75 °F 71 °F 80 °F (2000)
Min Temperature 57 °F 51 °F 35 °F (2007)
Cooling Degree Days 2    
Growing Degree Days 16 (Base 50)    
Moisture  
Dew Point 61 °F    
Average Humidity 82    
Maximum Humidity 99    
Minimum Humidity 66    
Precipitation  
Precipitation 0.00 in - - ()
Sea Level Pressure  
Sea Level Pressure 30.11 in    
Wind  
Wind Speed 7 mph (East)    
Max Wind Speed 16 mph    
Max Gust Speed 22 mph    
Visibility 10 miles    
Events Rain    
Averages and records for this station are not official NWS values.
T = Trace of Precipitation, MM = Missing Value Source: NWS Daily Summary

Daily Weather History Graph

Daily Weather History Graph

Search for Another Location

Airport:

Trip Planner

Search our weather history database for the weather conditions in past years. The results will help you decide how hot, cold, wet, or windy it might be!

Date:

Astronomy

Nov. 08, 2011 Rise Set
Actual Time 6:06 AM CST 4:54 PM CST
Civil Twilight 5:41 AM CST 5:19 PM CST
Nautical Twilight 5:12 AM CST 5:47 PM CST
Astronomical Twilight 4:44 AM CST 6:16 PM CST
Moon 3:30 PM CST (11/8) 4:09 AM CST (11/8)
Length of Visible Light 11h 37m
Length of Day
10h 47m
Waxing Gibbous, 96% of the Moon is Illuminated
Nov 8
Waxing Gibbous
Nov 10
Full
Nov 18
Last Quarter
Nov 25
New
Dec 2
First Quarter

Hourly Weather History & Observations

Time (CST) Temp. Dew Point Humidity Pressure Visibility Wind Dir Wind Speed Gust Speed Precip Events Conditions
12:55 AM 62.6 °F 60.1 °F 91% 30.13 in 10.0 mi ENE 4.6 mph - N/A   Mostly Cloudy
1:55 AM 62.4 °F 59.5 °F 90% 30.12 in 10.0 mi East 5.8 mph - N/A   Clear
2:55 AM 61.3 °F 59.0 °F 92% 30.11 in 10.0 mi East 5.8 mph - N/A   Clear
3:55 AM 60.8 °F 59.2 °F 94% 30.12 in 10.0 mi ENE 5.8 mph - N/A   Overcast
4:55 AM 62.6 °F 59.5 °F 90% 30.14 in 10.0 mi East 6.9 mph - N/A   Overcast
5:55 AM 62.2 °F 59.4 °F 90% 30.15 in 10.0 mi ENE 5.8 mph - N/A   Overcast
6:32 AM 62.6 °F 59.0 °F 88% 30.16 in 10.0 mi East 8.1 mph - N/A Rain Light Rain
6:42 AM 62.6 °F 59.0 °F 88% 30.16 in 10.0 mi East 8.1 mph - N/A   Overcast
6:55 AM 63.3 °F 59.7 °F 88% 30.16 in 10.0 mi East 9.2 mph - 0.00 in   Overcast
7:55 AM 67.6 °F 58.6 °F 73% 30.18 in 10.0 mi East 10.4 mph - N/A   Clear
8:55 AM 70.5 °F 58.8 °F 66% 30.18 in 10.0 mi East 11.5 mph - N/A   Clear
9:55 AM 72.9 °F 61.7 °F 68% 30.17 in 10.0 mi ESE 16.1 mph 21.9 mph N/A   Clear
10:55 AM 74.5 °F 62.2 °F 66% 30.15 in 10.0 mi East 15.0 mph 20.7 mph N/A   Clear
11:55 AM 75.2 °F 63.3 °F 66% 30.13 in 10.0 mi East 10.4 mph - N/A   Clear
12:55 PM 74.7 °F 64.0 °F 69% 30.11 in 10.0 mi SE 11.5 mph - N/A   Clear
1:38 PM 75.2 °F 64.4 °F 69% 30.10 in 10.0 mi SE 11.5 mph - N/A Rain Light Rain
1:41 PM 75.2 °F 64.4 °F 69% 30.10 in 10.0 mi ESE 11.5 mph - N/A   Clear
1:55 PM 74.3 °F 63.9 °F 70% 30.10 in 10.0 mi ESE 9.2 mph - 0.00 in   Clear
2:55 PM 74.1 °F 63.0 °F 68% 30.08 in 10.0 mi SE 10.4 mph - N/A   Clear
2:59 PM 73.4 °F 62.6 °F 69% 30.08 in 10.0 mi SE 9.2 mph - N/A   Light Drizzle
3:06 PM 73.4 °F 62.6 °F 69% 30.08 in 10.0 mi SE 8.1 mph - N/A   Clear
3:55 PM 72.7 °F 64.2 °F 75% 30.07 in 10.0 mi SSE 8.1 mph - 0.00 in   Clear
4:55 PM 69.6 °F 64.6 °F 84% 30.07 in 10.0 mi SE 3.5 mph - N/A   Clear
5:55 PM 68.2 °F 64.6 °F 88% 30.08 in 10.0 mi Calm Calm - N/A   Clear
6:55 PM 61.5 °F 60.3 °F 96% 30.08 in 10.0 mi North 3.5 mph - N/A   Clear
7:55 PM 63.0 °F 61.9 °F 96% 30.09 in 10.0 mi Calm Calm - N/A   Clear
8:55 PM 60.3 °F 59.9 °F 99% 30.09 in 10.0 mi Calm Calm - N/A   Clear
9:55 PM 58.3 °F 57.9 °F 99% 30.08 in 10.0 mi Calm Calm - N/A   Clear
10:55 PM 59.4 °F 59.0 °F 99% 30.08 in 10.0 mi Calm Calm - N/A   Clear
11:55 PM 57.7 °F 57.6 °F 99% 30.07 in 10.0 mi Calm Calm - N/A   Clear